Probability
0 0 0 0 0 0 0 0 0 0 0 0 0 0 0 0 0 0 0 2 7 13 14 14 14 13 10 6 4 3 2 2 2 3 3 3 3 2 1 0 0 0 0 0 0 0 0 0 0
1 0 0 0 0 0 0 0 0 0 0 0 0 0 0 0 0 0 0 2 7 11 12 13 15 14 10 7 4 4 3 2 3 3 3 3 3 1 0 0 0 0 0 0 0 0 0 0 0
1 0 0 0 0 0 0 0 0 0 0 0 0 0 1 1 1 1 1 3 6 8 9 12 15 16 12 8 6 5 4 4 3 3 3 3 2 1 0 0 0 0 0 0 0 0 0 0 0
1 0 0 0 0 0 0 0 0 0 0 0 0 1 2 2 2 1 1 3 5 6 8 11 15 16 13 9 8 8 6 5 5 4 3 2 1 0 0 0 0 0 0 0 0 0 0 0 0
0 0 0 0 0 0 0 0 0 0 0 0 0 1 2 4 4 2 2 3 4 6 7 10 13 14 11 9 9 9 8 7 6 5 4 2 1 0 0 0 0 0 0 0 0 0 0 0 0
0 0 0 0 0 0 0 0 0 0 0 1 1 1 3 4 4 4 5 5 5 6 7 7 9 11 9 7 8 9 9 9 7 4 3 2 1 1 0 0 0 0 0 0 0 0 0 0 0
0 0 0 0 0 0 0 0 0 0 0 1 2 3 4 4 4 5 6 7 7 7 7 6 6 6 5 5 6 7 8 8 5 2 1 1 1 1 1 0 0 0 0 0 0 0 0 0 0
0 0 0 0 0 0 0 0 0 0 0 1 1 3 5 6 5 5 7 7 7 8 7 6 4 2 2 3 4 4 5 4 3 1 0 0 0 1 1 0 0 0 0 0 0 0 0 0 0
0 0 0 0 0 0 0 0 0 0 0 0 0 2 5 8 7 7 7 7 7 7 6 6 5 3 2 2 3 3 3 2 1 1 0 0 0 0 0 0 0 0 0 0 0 1 0 0 0
0 0 0 0 0 0 0 0 0 0 0 0 0 1 4 6 6 5 5 4 5 7 7 6 6 5 3 3 4 4 3 2 1 1 0 0 0 0 0 0 0 0 0 0 0 0 0 0 0
0 0 0 0 0 0 0 0 0 0 0 0 0 1 2 2 2 2 2 2 4 7 8 7 7 7 6 5 5 6 5 3 2 1 0 0 0 0 0 0 0 0 0 0 0 0 0 0 0
0 0 0 0 0 0 0 0 0 0 0 0 0 1 1 0 0 1 1 1 3 6 7 8 9 8 7 6 6 6 6 4 3 2 1 0 0 0 0 0 0 0 0 0 0 0 0 0 0
0 0 0 0 0 0 0 0 0 0 0 0 0 0 0 0 0 1 1 1 2 2 4 7 9 8 7 6 6 6 6 4 3 3 2 1 1 1 1 1 1 0 0 0 0 0 0 0 0
0 0 0 0 0 0 0 0 0 0 0 0 0 0 0 0 0 1 2 2 1 1 2 5 7 7 7 6 6 6 6 4 3 3 3 3 2 2 2 2 2 1 0 0 0 0 0 0 0
0 0 0 0 0 0 0 0 0 0 0 0 0 0 0 0 0 0 1 1 1 1 2 4 5 6 6 6 6 6 6 4 3 3 3 3 3 3 3 3 2 1 0 0 0 0 0 0 0
0 0 0 0 0 0 0 0 0 0 0 0 0 0 0 0 0 0 0 0 0 1 2 3 4 4 5 6 6 6 6 4 3 3 3 3 3 3 3 3 2 1 0 0 0 0 0 0 0
0 0 0 0 0 0 0 0 0 0 0 0 0 0 0 0 0 0 0 0 0 1 2 3 2 2 3 5 6 6 5 5 4 3 3 3 3 3 3 3 1 0 0 0 0 0 0 0 0
0 0 0 0 0 0 0 0 0 0 0 0 0 0 0 0 0 0 0 0 0 1 2 2 1 1 1 3 4 4 4 4 3 3 3 3 3 3 2 2 1 0 0 0 0 0 0 0 0
0 0 0 0 0 0 0 0 0 0 0 0 0 0 0 0 0 0 0 0 0 0 1 1 1 1 1 2 2 3 3 3 2 2 2 2 2 1 1 1 0 0 0 0 0 0 0 0 0
0 0 0 0 0 0 0 0 0 0 0 0 0 0 0 0 0 0 0 0 0 0 0 0 0 1 2 2 2 2 2 1 1 1 1 1 1 0 0 0 0 0 0 0 0 0 0 0 0
0 0 0 0 0 0 0 0 0 0 0 0 0 0 0 0 0 0 0 0 0 0 0 0 0 1 2 2 1 1 1 0 0 0 0 0 0 0 0 0 0 0 0 0 0 0 0 0 0
0 0 0 0 0 0 0 0 0 0 0 0 0 0 0 0 0 0 0 0 0 0 0 1 1 1 1 1 1 0 0 0 0 0 0 0 0 0 0 0 0 0 0 0 0 0 0 0 0
0 0 0 0 0 0 0 0 0 0 0 0 0 0 0 0 0 0 0 0 0 0 0 1 1 1 0 0 0 0 0 0 0 0 0 0 0 0 0 0 0 0 0 0 0 0 0 0 0
0 0 0 0 0 0 0 0 0 0 0 0 0 0 0 0 0 0 0 0 0 0 0 0 0 0 0 0 0 0 0 0 0 0 0 0 0 0 0 0 0 0 0 0 0 0 0 0 0
0 0 0 0 0 0 0 0 0 0 0 0 0 0 0 0 0 0 0 0 0 0 0 0 0 0 0 0 0 0 0 0 0 0 0 0 0 0 0 0 0 0 0 0 0 0 0 0 0
0 0 0 0 0 0 0 0 0 0 0 0 0 0 0 0 0 0 0 0 0 0 0 0 0 0 0 0 0 0 0 0 0 0 0 0 0 0 0 0 0 0 0 0 0 0 0 0 0
0 0 0 0 0 0 0 0 0 0 0 0 0 0 0 0 0 0 0 0 0 0 0 0 0 0 0 0 0 0 0 0 0 0 0 0 0 0 0 0 0 0 0 0 0 0 0 0 0
0 0 0 0 0 0 0 0 0 0 0 0 0 0 0 0 0 0 0 0 0 0 0 0 0 0 0 0 0 0 0 0 0 0 0 0 0 0 0 0 0 0 0 0 0 0 0 0 0
0 0 0 0 0 0 0 0 0 0 0 0 0 0 0 0 0 0 0 0 0 0 0 0 0 0 0 0 0 0 0 0 0 0 0 0 0 0 0 0 0 0 0 0 0 0 0 0 0
0 0 0 0 0 0 0 0 0 0 0 0 0 0 0 0 0 0 0 0 0 0 0 0 0 0 0 0 0 0 0 0 0 0 0 0 0 0 0 0 0 0 0 0 0 0 0 0 0
Wind_Speed
9 9 6 2 2 5 9 7 2 2 2 4 5 4 4 5 5 6 3 4 6 9 9 9 9 9 9 9 9 9 8 8 8 8 8 8 7 8 8 8 8 8 9 8 8 8 8 8 8
8 6 4 3 4 6 7 5 1 3 5 4 3 2 2 4 6 7 4 3 6 8 9 8 9 9 9 8 8 8 8 8 8 7 7 7 7 7 8 8 8 8 8 8 8 8 8 8 7
10 6 3 3 5 7 4 1 4 6 4 2 1 3 3 4 5 4 4 4 6 7 8 9 10 9 9 8 8 7 7 7 7 7 7 7 7 7 7 7 7 7 7 7 7 7 7 6 6
4 3 4 5 9 7 4 1 4 4 3 2 2 2 4 5 4 5 5 4 6 7 7 8 10 9 9 8 7 7 7 7 7 7 7 7 6 6 6 6 6 6 6 6 6 6 6 6 5
3 3 5 7 10 6 3 1 2 1 2 2 3 2 4 4 7 7 5 5 5 7 7 8 9 9 8 8 7 7 7 6 7 7 7 6 6 6 5 5 5 5 5 5 5 5 5 5 4
3 3 5 8 9 5 3 1 2 1 1 1 2 2 4 4 5 5 5 5 6 7 7 7 7 7 7 7 7 7 7 7 7 7 6 6 6 5 5 5 5 5 5 5 5 5 5 5 4
3 3 6 7 6 4 2 1 1 1 1 0 1 2 5 4 4 4 4 5 6 7 6 5 5 6 6 7 7 7 6 6 7 6 6 5 5 4 4 4 4 5 4 4 4 4 4 4 3
3 3 6 7 7 4 1 2 2 1 2 2 2 2 4 4 4 4 4 5 6 5 5 5 4 4 4 4 6 7 6 6 6 6 5 4 4 3 3 3 3 3 3 3 3 3 3 2 2
3 4 5 5 5 1 3 1 1 2 2 2 3 4 5 7 5 4 4 4 4 5 4 4 4 4 3 3 5 5 5 6 5 4 3 2 1 2 2 2 2 2 2 2 2 2 2 2 1
3 4 5 3 3 2 1 0 1 1 1 1 3 5 6 6 5 4 4 4 4 4 4 3 3 3 3 3 3 2 2 3 2 2 3 1 1 1 2 2 2 2 2 2 1 1 1 1 1
4 5 3 4 3 3 2 1 1 3 3 2 3 5 5 5 4 4 4 4 4 4 4 3 3 3 3 2 1 1 1 1 2 2 2 2 1 1 1 1 1 1 1 0 0 1 1 1 0
5 5 5 4 2 2 2 2 2 3 2 1 1 4 5 4 4 3 3 3 3 4 4 3 3 3 3 2 1 1 1 1 1 1 1 1 1 1 0 1 1 1 0 0 0 0 0 1 1
7 5 5 4 2 2 3 4 3 5 3 1 1 4 4 4 4 3 2 2 3 3 4 3 4 3 2 2 1 1 1 1 1 1 1 1 1 1 1 0 0 0 0 0 0 0 0 1 1
2 3 5 4 4 4 5 6 5 6 4 3 4 4 5 5 5 4 3 3 3 4 4 3 3 3 3 2 1 1 1 1 1 1 1 1 1 1 1 1 0 1 0 0 0 1 0 1 1
1 3 5 7 6 4 2 6 8 8 5 5 5 4 4 4 5 5 4 3 3 4 4 3 3 4 4 3 2 1 1 1 1 1 1 1 1 1 1 1 0 1 0 0 1 1 1 1 1
5 5 5 5 5 4 4 8 5 5 6 6 5 5 5 5 5 4 4 3 3 3 4 3 3 3 4 3 2 1 2 2 1 1 1 1 1 1 1 1 1 1 0 0 0 0 0 1 1
7 6 6 4 6 5 6 7 4 4 5 6 6 5 5 5 5 4 4 4 4 4 4 3 3 3 3 3 2 2 2 2 2 1 1 1 1 0 1 1 1 0 0 0 0 0 0 1 1
6 6 6 5 5 5 7 8 6 5 7 7 6 6 6 5 5 5 4 4 4 4 4 4 3 3 3 2 2 1 2 1 1 1 1 1 1 0 1 1 1 0 0 0 0 0 1 0 1
6 6 7 5 2 4 7 10 9 7 7 7 7 6 5 5 5 5 5 4 4 4 4 4 4 3 3 2 2 2 2 1 1 1 2 2 1 1 1 1 1 1 1 1 1 1 0 1 1
8 8 7 4 3 4 7 11 10 9 9 8 7 6 5 4 4 5 5 4 4 4 4 4 4 4 3 3 2 2 2 2 2 1 1 2 2 1 1 1 1 1 1 1 1 1 1 1 0
9 8 7 4 4 5 6 9 9 8 8 7 7 6 6 6 6 5 5 4 4 4 4 3 4 4 3 3 2 2 2 1 1 1 1 1 1 2 1 1 1 1 1 1 1 1 2 1 1
7 4 4 3 3 4 3 6 6 7 7 7 7 5 6 5 5 5 5 4 4 4 4 3 4 4 4 4 3 4 3 2 2 2 2 2 2 1 2 2 1 1 1 1 1 1 1 1 1
4 1 3 4 4 5 5 6 7 6 7 7 7 7 6 5 5 6 5 5 4 3 3 3 3 4 4 4 4 4 3 2 1 1 2 2 2 2 1 1 1 2 2 2 2 1 1 1 2
1 0 1 3 2 6 7 7 7 5 7 7 7 6 6 5 5 5 5 5 4 3 3 3 3 3 4 4 4 4 4 3 2 2 2 2 1 1 2 2 1 2 2 2 2 2 2 2 2
3 3 1 2 4 7 5 6 7 3 4 4 6 6 5 5 5 5 5 5 4 4 4 3 3 3 3 4 4 4 4 3 4 3 3 2 2 2 2 2 2 2 2 2 2 2 2 3 2
7 5 4 4 4 2 3 7 5 2 4 4 4 5 5 5 4 4 4 4 4 4 4 4 3 3 3 3 3 3 3 3 3 3 2 3 2 3 3 3 2 2 2 2 2 2 2 2 2
4 5 2 2 3 3 5 4 2 3 3 3 4 4 4 4 4 4 3 4 4 4 4 4 4 3 3 3 3 3 4 3 3 3 2 2 2 2 3 3 3 2 2 2 2 2 2 2 2
3 2 2 3 3 4 5 6 4 5 4 4 4 4 3 3 3 3 3 3 3 4 3 4 4 3 3 3 3 3 3 3 3 3 3 3 3 2 3 3 3 3 3 3 2 2 2 2 2
5 3 3 3 3 3 4 4 0 4 5 5 4 4 4 4 3 3 3 3 3 3 3 3 3 3 3 3 3 3 3 3 3 3 3 3 2 3 3 3 3 3 3 3 3 3 3 3 3
4 6 5 4 5 4 3 5 1 2 3 4 4 3 3 3 2 3 3 3 3 2 2 3 3 3 2 2 2 2 2 3 3 3 3 3 3 3 3 3 3 4 4 4 4 4 4 4 4
Wind_Direction
286 261 246 242 232 233 242 245 244 85 61 43 28 12 20 19 32 102 139 88 106 120 124 127 123 125 123 121 114 107 106 103 99 95 91 87 83 82 78 76 76 71 68 67 67 70 75 74 72
280 260 243 234 233 236 238 229 192 60 73 64 33 356 50 68 72 97 101 95 111 119 123 126 123 126 125 124 120 115 111 107 102 99 96 90 86 83 80 77 76 74 71 69 65 64 66 70 71
267 253 238 227 231 242 251 95 98 82 79 87 73 18 39 62 82 96 102 112 110 114 119 122 123 122 123 123 125 123 119 111 104 101 98 93 88 84 79 75 75 76 73 71 67 63 62 67 67
254 231 242 240 244 251 267 58 91 104 114 138 123 84 80 51 68 91 110 113 113 113 115 126 125 124 122 120 120 127 123 117 109 103 99 93 87 82 78 75 75 76 73 70 68 65 60 60 63
241 235 228 236 245 254 266 14 98 148 158 149 138 121 92 69 82 99 114 115 113 111 113 126 127 127 125 121 115 121 124 123 116 107 102 95 88 80 73 75 74 78 75 71 70 65 60 56 56
239 238 232 233 239 231 234 223 169 177 203 154 131 129 104 101 97 110 115 114 105 105 109 119 125 127 128 126 121 119 122 120 115 108 101 93 89 85 78 78 77 79 77 73 69 63 57 54 47
253 248 246 250 250 246 220 96 152 191 236 246 61 109 117 103 106 121 122 112 103 103 109 114 119 119 121 122 122 114 114 114 110 107 101 93 92 89 84 83 86 84 80 75 67 59 52 48 42
273 273 253 248 248 252 84 64 39 15 328 21 24 110 120 127 120 120 117 108 105 106 111 115 113 117 118 120 114 115 115 111 106 103 100 96 98 95 86 83 87 87 83 76 70 63 53 40 27
263 249 248 254 260 264 106 95 80 46 49 37 45 50 92 121 122 120 113 106 108 111 113 121 125 121 123 131 123 119 122 121 119 115 117 117 119 107 95 91 81 96 91 81 73 61 44 18 359
224 237 245 277 312 331 81 137 143 171 191 181 113 95 110 128 138 144 143 147 141 133 129 120 117 116 114 127 128 136 130 139 145 142 143 137 83 92 102 100 102 99 101 90 69 35 12 1 336
221 236 260 286 337 358 330 292 265 238 241 220 170 141 134 140 151 166 170 159 152 145 133 124 123 119 111 102 121 127 124 133 126 121 121 123 114 115 113 120 128 131 138 123 333 294 306 326 327
238 249 260 276 334 330 287 272 273 249 253 6 68 132 148 159 172 181 184 170 153 140 138 132 126 125 130 123 121 125 119 127 125 111 116 130 124 103 92 117 140 137 144 139 236 248 278 328 311
236 255 270 278 288 274 274 261 263 255 251 241 147 153 166 180 185 193 188 170 149 145 145 149 142 136 130 128 143 127 132 129 121 107 104 95 120 117 86 71 49 54 101 124 266 284 314 300 288
240 262 267 263 251 245 244 253 238 241 213 194 185 189 184 192 190 195 189 180 168 159 153 153 151 144 138 139 151 148 136 128 121 121 117 100 105 117 111 76 47 341 26 32 315 287 281 270 283
205 254 260 238 227 216 228 252 229 226 204 201 193 196 196 201 192 193 190 181 173 164 156 160 164 152 152 160 173 152 136 131 133 133 131 123 105 119 121 123 97 290 285 38 348 334 332 301 299
217 225 238 218 200 182 201 249 236 195 194 206 203 204 204 205 193 183 176 173 169 161 160 163 168 161 167 163 166 158 150 145 149 143 140 136 117 141 132 138 195 262 344 95 262 288 307 307 300
212 226 229 228 196 199 219 249 229 199 207 217 215 211 206 200 190 184 174 168 166 166 161 161 167 165 167 159 162 160 151 153 149 140 137 145 152 159 150 169 187 207 70 254 272 319 284 285 304
221 230 236 228 198 214 236 252 249 237 230 229 223 213 203 201 192 179 173 167 165 165 159 164 169 166 158 148 151 145 143 150 139 138 143 147 157 165 140 156 167 164 172 230 227 283 324 312 306
262 262 261 266 246 227 246 257 253 242 235 232 225 214 204 202 180 169 169 167 164 161 162 169 166 164 154 157 164 165 174 168 148 158 154 161 158 175 162 163 179 175 195 215 205 201 294 322 321
251 259 262 268 247 254 260 265 261 243 231 220 214 211 205 186 176 171 166 163 163 163 167 170 163 169 170 171 172 174 166 176 165 162 168 171 166 173 186 173 186 185 184 229 227 195 198 274 286
243 244 251 262 293 258 262 271 244 236 221 215 212 200 191 185 183 175 168 166 161 165 169 174 170 171 172 161 157 150 130 118 128 155 170 192 178 174 192 195 180 182 181 211 224 200 198 216 251
246 251 256 256 270 261 228 274 250 226 212 207 203 190 185 178 179 171 166 167 167 169 166 172 171 170 168 161 166 166 170 184 197 185 182 181 169 177 191 198 187 182 193 209 222 214 222 193 223
244 265 252 241 250 270 241 252 266 212 210 207 195 187 182 175 175 170 167 164 157 155 159 166 166 171 169 172 175 180 187 192 173 156 162 177 177 179 190 198 192 198 204 204 206 214 230 215 212
206 194 246 234 240 254 221 218 263 210 206 198 187 180 176 171 165 157 152 147 150 149 155 163 167 173 171 175 180 186 189 181 166 172 182 183 177 188 199 203 203 213 212 209 205 206 218 227 226
200 160 189 213 216 240 199 214 247 209 173 164 165 164 164 155 148 150 154 158 161 161 164 173 175 177 177 176 184 190 188 184 185 187 189 186 184 196 210 207 210 218 225 216 204 205 222 226 226
206 199 197 213 227 254 212 227 241 138 115 111 123 142 142 143 147 159 166 165 166 165 167 172 177 181 184 190 193 190 187 186 192 194 192 196 202 203 197 202 213 218 218 221 213 207 221 224 226
196 219 236 269 283 270 240 237 221 127 128 136 143 142 147 153 153 156 161 159 164 167 172 172 175 181 185 196 198 188 185 190 197 200 195 196 202 204 191 194 206 214 211 212 213 223 224 216 223
239 220 155 195 223 249 250 229 221 176 181 173 161 157 154 152 150 153 157 158 161 161 165 167 175 183 184 190 198 193 187 191 196 195 198 200 201 197 193 198 204 207 208 210 213 224 233 222 228
193 198 209 223 229 226 257 256 55 162 170 171 167 157 156 158 160 160 158 158 154 150 157 164 172 180 186 189 197 196 196 192 191 197 205 203 201 199 203 205 205 206 209 214 214 219 225 227 230
218 206 190 202 235 224 249 266 5 102 145 157 151 142 137 142 151 152 157 156 153 164 172 175 175 179 187 186 193 198 200 192 192 201 207 206 208 208 210 213 210 213 215 216 219 223 226 226 228